Regional Weather Roundup
Issued by NWS

Home | Current Version | Previous Version | Text Only | Print | Product List | Glossary Off
Versions: 1 2 3 4 5 6 7 8 9 10 11 12 13 14 15 16 17 18 19 20 21 22 23 24 25 26 27 28 29 30 31 32 33 34 35 36 37 38 39 40 41 42 43 44 45 46 47 48 49 50

000
ASUS45 KPSR 170610
RWRAZ

ARIZONA REGIONAL HOURLY WEATHER ROUNDUP
NATIONAL WEATHER SERVICE PHOENIX AZ
1100 PM MST TUE SEP 16 2014

NOTE: FAIR INDICATES FEW OR NO CLOUDS BELOW 12,000 FEET WITH NO
SIGNIFICANT WEATHER AND/OR OBSTRUCTIONS TO VISIBILITY.

AZZ001>003-036-170700-
NORTHWEST ARIZONA

CITY           SKY/WX    TMP DP  RH WIND       PRES   REMARKS
BULLHEAD CITY  CLOUDY    84  66  54 E8        29.84S
KINGMAN        CLOUDY    69  65  86 SE5       30.04R
6HR MIN TEMP:  69; 6HR MAX TEMP:  79; 6HR PCP:  0.02;

$$

AZZ004>008-015-016-018-170700-
NORTH CENTRAL ARIZONA

CITY           SKY/WX    TMP DP  RH WIND       PRES   REMARKS
GRAND CANYON   CLOUDY    63  50  62 NE7       30.23F
6HR MIN TEMP:  62; 6HR MAX TEMP:  76; 6HR PCP: TRACE;

PRESCOTT       CLOUDY    66  56  70 CALM      30.14F
6HR MIN TEMP:  63; 6HR MAX TEMP:  77;

FLAGSTAFF      CLOUDY    58  56  93 CALM      30.26F
6HR MIN TEMP:  58; 6HR MAX TEMP:  65; 6HR PCP:  0.03;

PAYSON         CLOUDY    64  61  88 N5        30.16F
PAGE           CLOUDY    76  55  48 SW12G18   30.06S
6HR MIN TEMP:  76; 6HR MAX TEMP:  88;

$$

AZZ009>014-017-170700-
NORTHEAST ARIZONA

CITY           SKY/WX    TMP DP  RH WIND       PRES   REMARKS
WINSLOW        CLOUDY    69  58  67 SE7       30.15S
6HR MIN TEMP:  69; 6HR MAX TEMP:  77;

SAINT JOHNS    LGT RAIN  63  59  87 E6        30.19F
6HR MIN TEMP:  63; 6HR MAX TEMP:  64; 6HR PCP:  0.07;

SHOW LOW       LGT RAIN  57  57 100 CALM      30.25S
$$

AZZ023-170700-
GREATER PHOENIX AREA

CITY           SKY/WX    TMP DP  RH WIND       PRES   REMARKS
PHOENIX        CLOUDY    85  64  49 NE9       29.83S
6HR MIN TEMP:  84; 6HR MAX TEMP:  85;

BUCKEYE          N/A     81  72  74 CALM      29.84S
LUKE AFB       CLOUDY    83  65  54 N6        29.84S
6HR MIN TEMP:  83; 6HR MAX TEMP:  85;

DEER VALLEY    CLOUDY    82  63  52 CALM      29.86S
6HR MIN TEMP:  78; 6HR MAX TEMP:  83; 6HR PCP: TRACE;

SCOTTSDALE     CLOUDY    84  62  47 N5        29.87F
6HR MIN TEMP:  81; 6HR MAX TEMP:  84; 6HR PCP: TRACE;

MESA-GATEWAY   CLOUDY    82  68  61 CALM      29.88R
$$

AZZ027-028-170700-
SOUTHWEST MARICOPA COUNTY AND PINAL COUNTY

CITY           SKY/WX    TMP DP  RH WIND       PRES   REMARKS
CASA GRANDE    CLOUDY    81  64  57 E10       29.86S
6HR MIN TEMP:  81; 6HR MAX TEMP:  86;

$$

AZZ503-504-507>509-170700-
SOUTHEAST ARIZONA

CITY           SKY/WX    TMP DP  RH WIND       PRES   REMARKS
TUCSON         CLOUDY    77  66  68 E7        29.93F
6HR MIN TEMP:  76; 6HR MAX TEMP:  81; 6HR PCP:  0.03;

DAVIS-MONTHAN  CLOUDY    76  66  72 E10       29.91F
6HR MIN TEMP:  75; 6HR MAX TEMP:  79; 6HR PCP:  0.02;

NOGALES        LGT RAIN  72  63  73 E10G17    29.97F
6HR MIN TEMP:  70; 6HR MAX TEMP:  76; 6HR PCP:  0.02;

SIERRA VISTA   LGT RAIN  66  66 100 E3        30.08S
                                      6HR PCP:  0.16;

DOUGLAS        CLOUDY    68  65  90 NW3       30.04F
6HR MIN TEMP:  68; 6HR MAX TEMP:  73; 6HR PCP:  0.12;

SAFFORD        CLOUDY    71  65  81 SE9       30.02F
6HR MIN TEMP:  70; 6HR MAX TEMP:  71; 6HR PCP: TRACE;

$$

AZZ020-021-025-026-031-170700-
SOUTHWEST ARIZONA

CITY           SKY/WX    TMP DP  RH WIND       PRES   REMARKS
YUMA           CLOUDY    91  62  37 E13       29.76S
6HR MIN TEMP:  91; 6HR MAX TEMP:  94;

$$

CAZ031-033-041-043-047-048-061-170700-
SOUTHERN CALIFORNIA

CITY           SKY/WX    TMP DP  RH WIND       PRES   REMARKS
DOWNTOWN L.A.  CLEAR     80  60  50 CALM      29.73R
6HR MIN TEMP:  79; 6HR MAX TEMP:  91;

L.A. AIRPORT   PTCLDY    76  59  55 CALM      29.73S
6HR MIN TEMP:  76; 6HR MAX TEMP:  82;

SAN DIEGO      PTCLDY    79  69  71 NW3       29.74S
6HR MIN TEMP:  79; 6HR MAX TEMP:  93; 6HR PCP: TRACE;

BURBANK        CLEAR     86  57  37 CALM      29.76R
6HR MIN TEMP:  86; 6HR MAX TEMP: 100;

ONTARIO        PTCLDY    89  59  36 CALM      29.78R
6HR MIN TEMP:  87; 6HR MAX TEMP:  96; 6HR PCP: TRACE;

RIVERSIDE      CLEAR     88  59  37 CALM      29.78R
6HR MIN TEMP:  87; 6HR MAX TEMP:  97;

PALM SPRINGS   CLOUDY    90  67  46 SE10      29.82R
6HR MIN TEMP:  90; 6HR MAX TEMP: 101;

EL CENTRO NAS  MOCLDY    89  63  41 CALM      29.75F
6HR MIN TEMP:  89; 6HR MAX TEMP: 101;

IMPERIAL       MOCLDY    89  64  43 CALM      29.75S
6HR MIN TEMP:  89; 6HR MAX TEMP:  98;

BLYTHE         MOCLDY    83  69  62 N7        29.80S
6HR MIN TEMP:  81; 6HR MAX TEMP: 101; 6HR PCP:  0.02;

NEEDLES        MOCLDY    83  68  60 E3        29.85R
6HR MIN TEMP:  78; 6HR MAX TEMP:  87; 6HR PCP:  0.35;

$$

NVZ020-UTZ003-170700-
SOUTHERN NEVADA-UTAH

CITY           SKY/WX    TMP DP  RH WIND       PRES   REMARKS
LAS VEGAS      MOCLDY    85  55  35 S15       29.88S
6HR MIN TEMP:  85; 6HR MAX TEMP:  98;

SALT LAKE CITY CLEAR     73  43  33 SE12      29.96S
6HR MIN TEMP:  73; 6HR MAX TEMP:  92;

$$

NMZ009-TXZ055-170700-
NEW MEXICO-WEST TEXAS

CITY           SKY/WX    TMP DP  RH WIND       PRES   REMARKS
ALBUQUERQUE    CLOUDY    63  54  72 SE5       30.23F
6HR MIN TEMP:  63; 6HR MAX TEMP:  68;

EL PASO        CLOUDY    69  64  84 N14       30.09F
6HR MIN TEMP:  69; 6HR MAX TEMP:  79;

$$


........................KEY........................
SKY/WX - SKY CONDITION/WEATHER
TMP    - TEMPERATURE IN FAHRENHEIT
DP     - DEW POINT IN FAHRENHEIT
RH     - RELATIVE HUMIDITY IN PERCENT
WIND   - DIRECTION AND SPEED IN MILES PER HOUR (MPH)
VRB    - VARIABLE WIND DIRECTION
PRES   - MEAN SEA LEVEL PRESSURE IN INCHES OF MERCURY
         F - FALLING PRESSURE   R - RISING PRESSURE
         S - STEADY PRESSURE
VSB    - VISIBILITY IN MILES
HX     - HEAT INDEX IN FAHRENHEIT
WCI    - WIND CHILL INDEX IN FAHRENHEIT
TC     - TEMPERATURE IN CELSIUS WHICH IS ALSO KNOWN AS
         TEMPERATURE IN CENTIGRADE
AFB    - AIR FORCE BASE
         LUKE AFB IS LUKE AIR FORCE BASE
         DAVIS-MONTHAN IS DAVIS-MONTHAN AIR FORCE BASE
NAS    - NAVAL AIR STATION
         EL CENTRO NAS IS EL CENTRO NAVAL AIR STATION
N/A    - NOT AVAILABLE


USA.gov is the U.S. government's official web portal to all federal, state and local government web resources and services.